7 * 24
多渠道服务支持
STARLINK-5623是美国太空探索技术公司星链互联网卫星项目的一员,于2023年1月31日发射升空,属于星链星座组网的第二代卫星。它旨在为全球提供低延迟、高速率的宽带互联网服务,尤其覆盖偏远与网络基础设施匮乏区域,依托近地轨道部署,助力星链完成全球卫星互联网组网建设。
美国
(US)
| 数据来源 | 国际轨道数据 |
| 星历时间: | 2026-09-04T12:48:29+0800 1天前 查看轨道信息 |
| 半长轴: | 6950.19km |
| 偏心率: | 0.000339 |
| 轨道倾角: | 70.000° |
| 近地点辐角 | 269.311° |
| 升交点赤经 | 334.408° |
| 平近点角 | 90.766° |
| 近地点: | 569.696km |
| 远地点: | 574.41km |
| 周期: | 96.107分钟 |
| 每日圈数: | 14.983312 |
| 事件ID | 空间交会对象 | 最接近时刻(TCA) | 交会距离 | 交会风险概率(CRP) | 交会风险指数(CRI) | 操作 |
|---|---|---|---|---|---|---|
| CDM_260907-062405-540506-324821 |
STARLINK-5623
(55405)
LEMUR 2 LIA-MARTIN
(63248) | 2026-09-07T 06:24:27+0000 |
1.615 km
极远距离 | 5.348897E-6 低风险 | 0.5 | |
| CDM_260906-145104-362005-540522 |
PSLV R/B
(43620)
STARLINK-5623
(55405) | 2026-09-06T 14:51:50+0000 |
2.029 km
极远距离 | 2.330008E-6 低风险 | 0.42 | |
| CDM_260905-185604-105005-540522 |
NOAA 16 DEB
(41050)
STARLINK-5623
(55405) | 2026-09-05T 18:56:40+0000 |
2.591 km
极远距离 | 1.641247E-6 低风险 | 0.39 | |
| CDM_260906-151405-540506-054522 |
STARLINK-5623
(55405)
HAWK-10B
(60545) | 2026-09-06T 15:14:35+0000 |
2.051 km
极远距离 | 1.157625E-6 低风险 | 0.36 |